{"data":{"norad_id":67479,"epoch":"2026-09-20T09:02:22.203168Z","epoch_age_seconds":107277,"freshness":"FRESH","line1":"1 67479U 26010D   26263.37664587 -.00000003  00000+0  86102-4 0  9991","line2":"2 67479  44.9845  18.4100 0009145  74.1701 286.0139 13.99173096 34725","mean_motion":13.99173096,"eccentricity":0.0009145,"inclination_deg":44.9845,"raan_deg":18.41,"arg_perigee_deg":74.1701,"mean_anomaly_deg":286.0139,"bstar":8.6102e-5,"rev_number":3472,"period_min":102.91793089195,"perigee_km":890.00717268578,"apogee_km":903.31277635218,"semimajor_km":7274.796974519,"source":"CELESTRAK","updated_at":"2026-09-21T09:00:16.669253Z"}}